sat.trackr.live / text

‹ back to catalog

STARLINK-30450

NORAD 57913 · 2023-147A

PAYLOAD ACTIVE UNKNOWN

§ Identity

Operator
Country
US
Launch date
2023-09-24
Launch site
AFETR
Launch vehicle
Mass (kg)
RCS (m²)

Purposes: comms

External: N2YO · Heavens-Above · Gunter

§ Orbital elements

Epoch: 2026-09-19T20:05:37.462560Z

Period
94.27 min
Inclination
43.0037°
Eccentricity
0.0001105
Mean motion
15.27576457 rev/d
Perigee alt
482.3 km
Apogee alt
483.8 km
Semi-major
6,861.2 km
B*
9.7098e-6
RAAN
308.4892°
Arg perigee
279.6470°
Mean anomaly
80.4257°
Rev number
16,629

§ Raw data

STARLINK-304501 57913U 23147A   26262.83723915  .00000005  00000+0  97098-5 0  99902 57913  43.0037 308.4892 0001105 279.6470  80.4257 15.27576457166299

JSON: /api/v1/satellites/57913 · /tle

For live sub-satellite position, see the globe view (requires WebGL).

§ Visibility from observer

Set your observer location to see the next 7 days of passes ≥ 10°. The values pass through the URL so the page stays shareable.

No JS? Fill the form by hand. The geolocation button needs JavaScript.